Regional Weather Roundup
Issued by NWS

Home | Current Version | Previous Version | Graphics & Text | Print | Product List | Glossary On
Versions: 1 2 3 4 5 6 7 8 9 10 11 12 13 14 15 16 17 18 19 20 21 22 23 24 25 26 27 28 29 30 31 32 33 34 35 36 37 38 39 40 41 42 43 44 45 46 47 48 49 50
660
ASUS44 KJAN 180203
RWRMS

MISSISSIPPI HOURLY WEATHER ROUNDUP
NATIONAL WEATHER SERVICE JACKSON MS
900 PM CDT WED SEP 17 2014

NOTE: "FAIR: INDICATES FEW OR NO CLOUDS BELOW 12,000 FEET WITH NO
SIGNIFICANT WEATHER AND/OR OBSTRUCTIONS TO VISIBILITY.

MSZ001>002-007>008-010>013-018>021-025>028-034>036-180300-
NORTHWEST MISSISSIPPI

CITY           SKY/WX    TMP DP  RH WIND       PRES   REMARKS
CLARKSDALE       N/A     72  70  94 CALM      29.93R
CLEVELAND      FAIR      77  70  79 E3        29.91R
GREENWOOD      PTCLDY    74  68  81 E5        29.92R
GREENVILLE     PTCLDY    76  67  73 N3        29.91R
GRENADA        FAIR      72  68  88 CALM      29.92F
OLIVE BRANCH   CLEAR     66  66 100 NE6       29.94R
OXFORD         FAIR      68  66  94 CALM      29.95R
TUNICA         MOCLDY    70  66  88 CALM      29.92R
$$

MSZ003>006-009-014>017-022>024-029>033-037>039-180300-
NORTHEAST MISSISSIPPI

CITY           SKY/WX    TMP DP  RH WIND       PRES   REMARKS
COLUMBUS AFB   CLEAR     71  66  86 N2        29.94R
CORINTH          N/A     68  63  83 CALM      29.94S
GOLDN TRIANGLE CLEAR     75  64  69 NE3       29.93S
STARKVILLE     FAIR      70  64  83 CALM      29.93S
TUPELO         PTCLDY    73  66  78 NE5       29.95R
$$

MSZ040-058-180300-
CENTRAL MISSISSIPPI

CITY           SKY/WX    TMP DP  RH WIND       PRES   REMARKS
JACKSON INTL   PTCLDY    75  70  84 CALM      29.92S
JACKSON HAWKNS CLEAR     80  69  69 CALM      29.93R
MERIDIAN KEY   CLEAR     74  68  81 CALM      29.93R
MERIDIAN NAS   PTCLDY    74  68  81 N3        29.94R
RAYMOND        FAIR      73  68  83 CALM      29.92R
VICKSBURG      PTCLDY    74  71  91 CALM      29.91R
$$

MSZ059>079-180300-
SOUTH MISSISSIPPI

CITY           SKY/WX    TMP DP  RH WIND       PRES   REMARKS
BROOKHAVEN     FAIR      75  73  94 CALM      29.95R
COLUMBIA       FAIR      75  73  94 CALM      29.91S
HATTIESBURG    PTCLDY    78  73  84 N3        29.93R
MCCOMB         PTCLDY    77  73  87 CALM      29.93S
NATCHEZ        PTCLDY    77  73  88 CALM      29.94R
PINE BELT      PTCLDY    77  70  78 CALM      29.94R
$$

MSZ080>082-180300-
COASTAL MISSISSIPPI

CITY           SKY/WX    TMP DP  RH WIND       PRES   REMARKS
BAY ST LOUIS   CLEAR     75  72  88 CALM      29.92R
BILOXI         CLEAR     81  73  77 W1        29.91S
PASCAGOULA     CLEAR     75  73  93 CALM      29.92R
GULFPORT       CLEAR     79  74  84 CALM      29.91S
$$



USA.gov is the U.S. government's official web portal to all federal, state and local government web resources and services.